Server Room Temperature

DATE TIME Temp. Humidity
2019-05-23 11:49:41 23.4 37.9
2019-05-23 11:39:41 23.6 38.7
2019-05-23 11:34:41 23.7 39.6
2019-05-23 11:29:41 23.6 39.7
2019-05-23 11:24:41 23.7 67
2019-05-23 11:14:41 23.6 66.6
2019-05-23 11:09:42 23.6 67.6
2019-05-23 11:04:41 23.5 39.8
2019-05-23 10:59:41 23.4 66.6
2019-05-23 10:54:41 23.3 39.3
2019-05-23 10:49:42 23.3 38.8
2019-05-23 10:39:42 23.2 38.8
2019-05-23 10:34:41 23.2 38.9
2019-05-23 10:29:42 23.2 38.9
2019-05-23 10:24:42 23.1 38.8
2019-05-23 10:14:42 22.9 38.9
2019-05-23 10:09:42 22.9 39
2019-05-23 10:04:42 22.8 39.3
2019-05-23 09:59:42 23.2 39.2
2019-05-23 09:54:42 23.1 39.4

CoE Phuket